Location: Beddau
(51.5575°N, 3.3561°W)
Time: 12:54:17
(UTC+00:00)

Cosmos 1777 Rocket - Pass Details

Date: 03 March 2021
Orbit: 759 x 775 km, 74.0° (Epoch: 16 April)

Event Time Altitude Azimuth Distance (km) Brightness Sun altitude
Rises 20:07:35 0° 333° (NNW) 3,251 7.9 -20.8°
Reaches altitude 10° 20:10:00 10° 330° (NNW) 2,318 7.1 -21.2°
Maximum altitude 20:15:12 65° 250° (WSW) 842 4.3 -21.9°
Enters shadow 20:18:20 24° 175° (S) 1,550 5.3 -22.4°
